This is the latest recevied weather packets stored in our database for station/object I1SXT-13. If no packets are shown the sender has not sent any weather packets the latest 10 day(s).
| Time | Temp. | Humidity | Pressure | Rain* | Wind** | Luminosity | Snow |
|---|---|---|---|---|---|---|---|
| 1777940366 | 15.56° C | 77% | 1015.3 hPa | 0 mm | - | - | - |
| 1777940069 | 15.56° C | 73% | 1016.5 hPa | 0 mm | - | - | - |
| 1777939765 | 15.56° C | 74% | 1016.3 hPa | 0 mm | - | - | - |
| 1777939468 | 15.56° C | 71% | 1015.8 hPa | 0 mm | - | - | - |
| 1777939164 | 15.56° C | 73% | 1016.4 hPa | 0 mm | - | - | - |
| 1777938866 | 16.11° C | 74% | 1016.2 hPa | 0 mm | - | - | - |
| 1777938569 | 15.56° C | 71% | 1016.5 hPa | 0 mm | - | - | - |
| 1777937664 | 16.11° C | 74% | 1016.8 hPa | 0 mm | - | - | - |
| 1777937367 | 16.11° C | 72% | 1016.9 hPa | 0 mm | - | - | - |
| 1777937070 | 16.11° C | 71% | 1016.5 hPa | 0 mm | - | - | - |
| 1777936766 | 16.11° C | 73% | 1016.5 hPa | 0 mm | - | - | - |
| 1777936165 | 16.11° C | 74% | 1016.4 hPa | 0 mm | - | - | - |
| 1777935867 | 16.11° C | 71% | 1016.6 hPa | 0 mm | - | - | - |
| 1777935563 | 16.11° C | 72% | 1016.6 hPa | 0 mm | - | - | - |
| 1777935266 | 16.11° C | 70% | 1016.6 hPa | 0 mm | - | - | - |
| 1777934969 | 16.11° C | 67% | 1016.6 hPa | 0 mm | - | - | - |
| 1777934665 | 16.11° C | 68% | 1016.7 hPa | 0 mm | - | - | - |
| 1777934368 | 16.11° C | 68% | 1016.7 hPa | 0 mm | - | - | - |
| 1777934064 | 15.56° C | 72% | 1016.7 hPa | 0 mm | - | - | - |
| 1777933767 | 16.11° C | 72% | 1017.2 hPa | 0 mm | - | - | - |
| 1777933470 | 16.11° C | 72% | 1016.7 hPa | 0 mm | - | - | - |
| 1777933165 | 15.56° C | 73% | 1016.7 hPa | 0 mm | - | - | - |
| 1777932868 | 16.11° C | 72% | 1017.7 hPa | 0 mm | - | - | - |
| 1777932267 | 16.11° C | 73% | 1017.1 hPa | 0 mm | - | - | - |
| 1777931967 | 16.11° C | 72% | 1017.5 hPa | 0 mm | - | - | - |
* Rain since midnight (hover to see other rain measurements)
** Current wind speed in m/s (hover to see current wind gust speed)